timestamp,surface_pressure_avg,surface_temp_avg,battery_voltage,lat,long
2018-07-12 00:00:00+00:00,348.213,12.7,13.21,47.84626,-54.09684
2018-07-12 00:10:00+00:00,339.7113,12.8,13.05,47.84626,-54.09684
2018-07-12 00:20:00+00:00,334.4813,12.87,13.13,47.84626,-54.09684
2018-07-12 00:30:00+00:00,328.2196,12.9,13.13,47.84626,-54.09684
2018-07-12 00:40:00+00:00,317.3697,13.0,13.13,47.84626,-54.09684
2018-07-12 00:50:00+00:00,305.9431,13.2,13.13,47.84626,-54.09684
2018-07-12 01:00:00+00:00,297.178,13.28,13.05,47.84626,-54.09684
2018-07-12 01:10:00+00:00,287.7814,13.3,12.97,47.84626,-54.09684
2018-07-12 01:20:00+00:00,275.4431,13.3,13.05,47.84626,-54.09684
2018-07-12 01:30:00+00:00,263.0864,13.3,13.05,47.84626,-54.09684
2018-07-12 01:40:00+00:00,253.8131,13.36,13.05,47.84626,-54.09684
2018-07-12 01:50:00+00:00,245.6581,13.49,13.05,47.84626,-54.09684
2018-07-12 02:00:00+00:00,239.3499,13.6,13.05,47.84626,-54.09684
2018-07-12 02:10:00+00:00,232.1898,13.76,12.97,47.84626,-54.09684
2018-07-12 02:20:00+00:00,226.2497,13.85,13.05,47.84626,-54.09684
2018-07-12 02:30:00+00:00,220.6347,13.9,13.05,47.84626,-54.09684
2018-07-12 02:40:00+00:00,214.5231,13.99,13.05,47.84626,-54.09684
2018-07-12 02:50:00+00:00,210.1981,14.06,13.05,47.84626,-54.09684
2018-07-12 03:00:00+00:00,202.8365,14.1,12.97,47.84626,-54.09684
2018-07-12 03:10:00+00:00,196.6748,14.1,12.97,47.84626,-54.09684
2018-07-12 03:20:00+00:00,193.1181,14.1,12.97,47.84626,-54.09684
2018-07-12 03:30:00+00:00,186.9798,14.0,13.05,47.84626,-54.09684
2018-07-12 03:40:00+00:00,181.1098,14.0,13.05,47.84626,-54.09684
2018-07-12 03:50:00+00:00,181.0748,13.99,13.05,47.84626,-54.09684
2018-07-12 04:00:00+00:00,182.4648,13.9,12.97,47.84626,-54.09684
2018-07-12 04:10:00+00:00,181.9714,13.9,12.89,47.84626,-54.09684
2018-07-12 04:20:00+00:00,182.7248,13.9,12.97,47.84626,-54.09684
2018-07-12 04:30:00+00:00,184.8432,13.9,12.97,47.84626,-54.09684
2018-07-12 04:40:00+00:00,184.9798,13.9,12.97,47.84626,-54.09684
2018-07-12 04:50:00+00:00,185.1448,13.99,12.97,47.84626,-54.09684
2018-07-12 05:00:00+00:00,186.8298,13.9,12.97,47.84626,-54.09684
2018-07-12 05:10:00+00:00,186.5364,13.87,12.89,47.84626,-54.09684
2018-07-12 05:20:00+00:00,184.4615,13.88,12.97,47.84626,-54.09684
2018-07-12 05:30:00+00:00,186.5748,13.88,12.97,47.84626,-54.09684
2018-07-12 05:40:00+00:00,192.1298,13.8,12.97,47.84626,-54.09684
2018-07-12 05:50:00+00:00,196.5115,13.7,12.97,47.84626,-54.09684
2018-07-12 06:00:00+00:00,199.4398,13.78,12.89,47.84626,-54.09684
2018-07-12 06:10:00+00:00,203.3448,13.81,12.89,47.84626,-54.09684
2018-07-12 06:20:00+00:00,206.3831,13.9,12.89,47.84626,-54.09684
2018-07-12 06:30:00+00:00,209.8448,13.9,12.89,47.84626,-54.09684
2018-07-12 06:40:00+00:00,216.8381,13.8,12.97,47.84626,-54.09684
2018-07-12 06:50:00+00:00,223.9665,13.78,12.97,47.84626,-54.09684
2018-07-12 07:00:00+00:00,226.7648,13.74,12.89,47.84626,-54.09684
2018-07-12 07:10:00+00:00,230.3398,13.76,12.81,47.84626,-54.09684
2018-07-12 07:20:00+00:00,237.2214,13.72,12.89,47.84626,-54.09684
2018-07-12 07:30:00+00:00,241.3231,13.72,12.89,47.84626,-54.09684
2018-07-12 07:40:00+00:00,246.0747,13.79,12.97,47.84626,-54.09684
2018-07-12 07:50:00+00:00,253.9714,13.8,12.97,47.84626,-54.09684
2018-07-12 08:00:00+00:00,264.2731,13.7,12.89,47.84626,-54.09684
2018-07-12 08:10:00+00:00,273.5714,13.7,12.81,47.84626,-54.09684
2018-07-12 08:20:00+00:00,281.0748,13.6,12.89,47.84626,-54.09684
2018-07-12 08:30:00+00:00,289.8514,13.5,12.89,47.84626,-54.09684
2018-07-12 08:40:00+00:00,299.2797,13.5,12.89,47.84626,-54.09684
2018-07-12 08:50:00+00:00,304.7447,13.69,12.97,47.84626,-54.09684
2018-07-12 09:00:00+00:00,310.7947,13.7,12.89,47.84626,-54.09684
2018-07-12 09:10:00+00:00,316.1514,13.59,12.89,47.84626,-54.09684
2018-07-12 09:20:00+00:00,321.2913,13.49,12.97,47.84626,-54.09684
2018-07-12 09:30:00+00:00,321.1947,13.84,12.97,47.84626,-54.09684
2018-07-12 09:40:00+00:00,326.5146,12.98,12.97,47.84626,-54.09684
2018-07-12 09:50:00+00:00,330.4479,12.63,12.97,47.84626,-54.09684
2018-07-12 10:00:00+00:00,329.7646,12.9,12.97,47.84626,-54.09684
2018-07-12 10:10:00+00:00,333.1464,12.7,12.89,47.84626,-54.09684
2018-07-12 10:20:00+00:00,342.4196,12.39,12.97,47.84626,-54.09684
2018-07-12 10:30:00+00:00,343.688,12.63,12.97,47.84626,-54.09684
2018-07-12 10:40:00+00:00,341.7529,12.68,13.05,47.84626,-54.09684
2018-07-12 10:50:00+00:00,345.3363,12.5,13.05,47.84626,-54.09684
2018-07-12 11:00:00+00:00,346.7513,12.6,13.05,47.84626,-54.09684
2018-07-12 11:10:00+00:00,341.6096,12.8,12.97,47.84626,-54.09684
2018-07-12 11:20:00+00:00,339.8947,12.7,13.05,47.84626,-54.09684
2018-07-12 11:30:00+00:00,343.6213,12.7,13.05,47.84626,-54.09684
2018-07-12 11:40:00+00:00,339.7313,12.9,13.13,47.84626,-54.09684
2018-07-12 11:50:00+00:00,328.6247,12.9,13.13,47.84626,-54.09684
2018-07-12 12:00:00+00:00,323.0579,12.9,13.05,47.84626,-54.09684
2018-07-12 12:10:00+00:00,320.293,12.97,12.97,47.84626,-54.09684
2018-07-12 12:20:00+00:00,315.253,13.03,13.05,47.84626,-54.09684
2018-07-12 12:30:00+00:00,308.5347,13.04,13.05,47.84626,-54.09684
2018-07-12 12:40:00+00:00,305.3963,13.05,13.05,47.84626,-54.09684
2018-07-12 12:50:00+00:00,299.1397,13.09,13.13,47.84626,-54.09684
2018-07-12 13:00:00+00:00,291.6014,13.1,13.05,47.84626,-54.09684
2018-07-12 13:10:00+00:00,285.6097,13.19,13.05,47.84626,-54.09684
2018-07-12 13:20:00+00:00,280.0964,13.49,13.13,47.84626,-54.09684
2018-07-12 13:30:00+00:00,275.9348,13.69,13.13,47.84626,-54.09684
2018-07-12 13:40:00+00:00,268.5697,13.7,13.13,47.84626,-54.09684
2018-07-12 13:50:00+00:00,256.4398,13.75,13.21,47.84626,-54.09684
2018-07-12 14:00:00+00:00,241.3131,13.8,13.21,47.84626,-54.09684
2018-07-12 14:10:00+00:00,234.6581,13.8,13.13,47.84626,-54.09684
2018-07-12 14:20:00+00:00,226.5864,13.78,13.13,47.84626,-54.09684
2018-07-12 14:30:00+00:00,212.7765,13.8,13.13,47.84626,-54.09684
2018-07-12 14:40:00+00:00,211.7665,13.7,13.21,47.84626,-54.09684
2018-07-12 14:50:00+00:00,212.9698,13.6,13.21,47.84626,-54.09684
2018-07-12 15:00:00+00:00,200.1115,13.67,13.21,47.84626,-54.09684
2018-07-12 15:10:00+00:00,189.1331,13.7,13.05,47.84626,-54.09684
2018-07-12 15:20:00+00:00,185.5964,13.67,13.05,47.84626,-54.09684
2018-07-12 15:30:00+00:00,182.3715,13.6,13.05,47.84626,-54.09684
2018-07-12 15:40:00+00:00,177.8232,13.6,13.13,47.84626,-54.09684
2018-07-12 15:50:00+00:00,173.6432,13.5,13.21,47.84626,-54.09684
2018-07-12 16:00:00+00:00,171.9832,13.49,13.13,47.84626,-54.09684
2018-07-12 16:10:00+00:00,172.7615,13.4,13.05,47.84626,-54.09684
2018-07-12 16:20:00+00:00,176.8815,13.36,13.13,47.84626,-54.09684
2018-07-12 16:30:00+00:00,170.9381,13.37,13.13,47.84626,-54.09684
2018-07-12 16:40:00+00:00,167.0482,13.4,13.21,47.84626,-54.09684
2018-07-12 16:50:00+00:00,179.0015,13.36,13.29,47.84626,-54.09684
2018-07-12 17:00:00+00:00,186.4381,13.37,13.29,47.84626,-54.09684
2018-07-12 17:10:00+00:00,182.9315,13.44,13.21,47.84626,-54.09684
2018-07-12 17:20:00+00:00,186.6531,13.5,13.29,47.84626,-54.09684
2018-07-12 17:30:00+00:00,198.2231,13.4,13.29,47.84626,-54.09684
2018-07-12 17:40:00+00:00,199.7781,13.4,13.37,47.84626,-54.09684
2018-07-12 17:50:00+00:00,194.3248,13.47,13.44,47.84626,-54.09684
2018-07-12 18:00:00+00:00,206.0015,13.32,13.37,47.84626,-54.09684
2018-07-12 18:10:00+00:00,218.9031,12.86,13.29,47.84626,-54.09684
2018-07-12 18:20:00+00:00,223.1831,13.33,13.29,47.84626,-54.09684
2018-07-12 18:30:00+00:00,224.3881,13.61,13.29,47.84626,-54.09684
2018-07-12 18:40:00+00:00,228.6581,13.92,13.29,47.84626,-54.09684
2018-07-12 18:50:00+00:00,237.7931,14.22,13.29,47.84626,-54.09684
2018-07-12 19:00:00+00:00,244.5764,14.02,13.29,47.84626,-54.09684
2018-07-12 19:10:00+00:00,257.0814,10.66,13.13,47.84626,-54.09684
2018-07-12 19:20:00+00:00,262.6181,11.65,13.21,47.84626,-54.09684
2018-07-12 19:30:00+00:00,267.1347,11.83,13.13,47.84626,-54.09684
2018-07-12 19:40:00+00:00,278.4914,10.87,13.21,47.84626,-54.09684
2018-07-12 19:50:00+00:00,299.6047,11.05,13.21,47.84626,-54.09684
2018-07-12 20:00:00+00:00,310.9479,11.26,13.13,47.84626,-54.09684
2018-07-12 20:10:00+00:00,310.4946,11.54,13.05,47.84626,-54.09684
2018-07-12 20:20:00+00:00,322.6797,11.77,13.05,47.84626,-54.09684
2018-07-12 20:30:00+00:00,337.6563,12.07,13.05,47.84626,-54.09684
2018-07-12 20:40:00+00:00,347.2813,12.2,13.05,47.84626,-54.09684
2018-07-12 20:50:00+00:00,356.7679,12.3,13.05,47.84626,-54.09684
2018-07-12 21:00:00+00:00,363.0829,12.47,12.97,47.84626,-54.09684
2018-07-12 21:10:00+00:00,367.6296,12.56,12.89,47.84626,-54.09684
2018-07-12 21:20:00+00:00,374.0795,12.6,12.97,47.84626,-54.09684
2018-07-12 21:30:00+00:00,383.8829,12.3,12.97,47.84626,-54.09684
2018-07-12 21:40:00+00:00,396.1246,11.34,12.97,47.84626,-54.09684
2018-07-12 21:50:00+00:00,394.2462,10.19,12.97,47.84626,-54.09684
2018-07-12 22:00:00+00:00,393.173,9.8,12.97,47.84626,-54.09684
2018-07-12 22:10:00+00:00,395.3246,9.6,12.89,47.84626,-54.09684
2018-07-12 22:20:00+00:00,392.7213,9.6,12.89,47.84626,-54.09684
2018-07-12 22:30:00+00:00,393.8329,9.65,12.97,47.84626,-54.09684
2018-07-12 22:40:00+00:00,389.6996,9.75,12.97,47.84626,-54.09684
2018-07-12 22:50:00+00:00,383.9563,9.96,12.97,47.84626,-54.09684
2018-07-12 23:00:00+00:00,383.6362,9.88,12.89,47.84626,-54.09684
2018-07-12 23:10:00+00:00,381.8979,10.24,12.81,47.84626,-54.09684
2018-07-12 23:20:00+00:00,378.9929,10.07,12.89,47.84626,-54.09684
2018-07-12 23:30:00+00:00,379.8396,10.0,12.89,47.84626,-54.09684
2018-07-12 23:40:00+00:00,378.0262,10.07,12.97,47.84626,-54.09684
2018-07-12 23:50:00+00:00,376.5312,10.2,12.97,47.84626,-54.09684
